Location: Azul
(36.7830°S, 59.8500°W)
Time: 00:53:43
(UTC-03:00)

ISS - Pass Details

Date: 22 June 2017
Orbit: 401 x 408 km, 51.6° (Epoch: 29 June)

Event Time Altitude Azimuth Distance (km) Brightness Sun altitude
Exits shadow 05:48:18 11° 30° (NNE) 1,428 -0.6 -28.0°
Drops below altitude 10° 05:48:23 10° 31° (NNE) 1,460 -0.6 -27.9°
Sets 05:50:29 0° 36° (NE) 2,313 0.7 -27.5°
